EW6047 Weather Reports


Display with metric or nautical units.
time (UTC)temp
F
wind
direction
speed
MPH
gust
MPH
rain 1hr
in
rain 24hr
in
rain mn
in
humidity
%
barometer
mb
20181211095451 29 190 1.0 7.0 0.00 0.00 0.00 75 1016.4
20181211094551 29 173 2.0 5.0 0.00 0.00 0.00 75 1016.5
20181211093651 29 177 2.0 6.0 0.00 0.00 0.00 74 1016.5
20181211092751 29 173 2.0 6.0 0.00 0.00 0.00 74 1016.7
20181211091851 29 178 2.0 8.0 0.00 0.00 0.00 74 1016.7
20181211090951 29 165 2.0 7.0 0.00 0.00 0.00 74 1016.9
20181211090051 29 195 2.0 7.0 0.00 0.00 0.00 74 1017.1
20181211085151 30 185 2.0 9.0 0.00 0.00 0.00 74 1016.9
20181211084251 30 179 2.0 5.0 0.00 0.00 0.00 74 1017.1
20181211083351 29 153 2.0 7.0 0.00 0.00 0.00 74 1017.2
20181211082452 30 191 2.0 7.0 0.00 0.00 0.00 74 1017.1
20181211081551 29 197 2.0 5.0 0.00 0.00 0.00 74 1016.8
20181211080651 30 219 3.0 6.0 0.00 0.00 0.00 74 1017.0
20181211075751 30 172 2.0 6.0 0.00 0.00 0.00 74 1017.3
20181211074851 30 206 2.0 6.0 0.00 0.00 0.00 76 1017.1
20181211073951 29 189 2.0 7.0 0.00 0.00 0.00 77 1017.2
20181211073051 28 164 1.0 3.0 0.00 0.00 0.00 73 1017.0
20181211072151 29 176 0.0 3.0 0.00 0.00 0.00 77 1017.1
20181211071251 29 188 1.0 5.0 0.00 0.00 0.00 76 1017.2
20181211070351 29 178 1.0 5.0 0.00 0.00 0.00 76 1017.3
20181211065451 29 178 2.0 5.0 0.00 0.00 0.00 76 1017.3
20181211064551 29 168 2.0 6.0 0.00 0.00 0.00 76 1017.1
20181211063652 29 194 2.0 5.0 0.00 0.00 0.00 76 1017.3
20181211062751 29 166 2.0 7.0 0.00 0.00 0.00 76 1017.3
20181211061851 29 177 3.0 7.0 0.00 0.00 0.00 75 1017.2
20181211060951 29 192 2.0 7.0 0.00 0.00 0.00 75 1017.5
20181211060051 29 166 2.0 7.0 0.00 0.00 0.00 75 1017.6
20181211055151 29 183 3.0 7.0 0.00 0.00 0.00 75 1017.5
20181211054251 29 170 3.0 8.0 0.00 0.00 0.00 74 1017.7
20181211053351 30 198 3.0 8.0 0.00 0.00 0.00 74 1017.8
20181211052451 30 196 3.0 10.0 0.00 0.00 0.00 72 1017.8
20181211051551 31 189 4.0 10.0 0.00 0.00 0.00 72 1017.8
20181211050651 31 187 4.0 14.0 0.00 0.00 0.00 72 1017.8
20181211045751 31 176 4.0 11.0 0.00 0.00 0.00 71 1018.0
20181211044851 31 179 3.0 10.0 0.00 0.00 0.00 71 1017.9
20181211043951 32 199 3.0 9.0 0.00 0.00 0.00 71 1018.1
20181211043051 32 183 4.0 13.0 0.00 0.00 0.00 71 1018.2
20181211042151 32 193 4.0 13.0 0.00 0.00 0.00 70 1018.3
20181211041251 32 189 3.0 11.0 0.00 0.00 0.00 72 1018.2
20181211040351 31 193 2.0 8.0 0.00 0.00 0.00 73 1018.5
20181211035451 31 184 2.0 7.0 0.00 0.00 0.00 74 1018.6
20181211034551 30 144 1.0 5.0 0.00 0.00 0.00 75 1018.6
20181211033651 30 161 1.0 6.0 0.00 0.00 0.00 75 1018.8
20181211032751 30 158 2.0 6.0 0.00 0.00 0.00 76 1018.8
20181211031851 30 188 3.0 8.0 0.00 0.00 0.00 76 1018.9
20181211030951 29 167 1.0 5.0 0.00 0.00 0.00 78 1018.9
20181211030051 29 181 2.0 7.0 0.00 0.00 0.00 78 1018.9
20181211025152 29 178 2.0 6.0 0.00 0.00 0.00 78 1019.1
20181211024252 30 190 3.0 8.0 0.00 0.00 0.00 79 1019.2
20181211023351 30 178 3.0 9.0 0.00 0.00 0.00 79 1019.3
20181211022452 30 189 3.0 9.0 0.00 0.00 0.00 79 1019.4
20181211021551 30 192 2.0 8.0 0.00 0.00 0.00 79 1019.5
20181211020651 30 249 2.0 7.0 0.00 0.00 0.00 77 1019.6
20181211015751 30 177 3.0 8.0 0.00 0.00 0.00 77 1019.7
20181211014851 30 172 4.0 8.0 0.00 0.00 0.00 77 1019.9
20181211013951 31 178 3.0 7.0 0.00 0.00 0.00 77 1019.9
20181211013051 30 187 2.0 7.0 0.00 0.00 0.00 77 1019.8
20181211012151 31 194 2.0 8.0 0.00 0.00 0.00 77 1020.1
20181211011252 31 185 2.0 6.0 0.00 0.00 0.00 76 1020.5
20181211010351 31 170 2.0 7.0 0.00 0.00 0.00 76 1020.4
20181211005451 31 183 2.0 7.0 0.00 0.00 0.00 75 1020.6
20181211004551 31 185 2.0 7.0 0.00 0.00 0.00 75 1020.5
20181211003651 31 184 2.0 6.0 0.00 0.00 0.00 75 1020.3
20181211002751 31 177 2.0 9.0 0.00 0.00 0.00 75 1020.4
20181211001851 31 176 2.0 6.0 0.00 0.00 0.00 74 1020.7
20181211000951 31 185 1.0 5.0 0.00 0.00 0.00 74 1020.8
20181211000051 31 191 2.0 5.0 0.00 0.00 0.00 73 1020.7
20181210235151 31 179 1.0 5.0 0.00 0.00 0.00 73 1020.9
20181210234251 32 181 2.0 4.0 0.00 0.00 0.00 70 1021.0
20181210233352 32 189 2.0 5.0 0.00 0.00 0.00 69 1021.0
20181210232451 33 175 2.0 5.0 0.00 0.00 0.00 68 1020.7
20181210231552 33 157 2.0 5.0 0.00 0.00 0.00 67 1020.6
20181210230651 33 181 2.0 6.0 0.00 0.00 0.00 66 1020.5
20181210225751 34 185 2.0 7.0 0.00 0.00 0.00 64 1020.4
20181210224851 35 165 2.0 6.0 0.00 0.00 0.00 62 1020.5
20181210223951 36 184 2.0 5.0 0.00 0.00 0.00 59 1020.5
20181210223051 36 184 2.0 9.0 0.00 0.00 0.00 59 1020.3
20181210222151 36 175 4.0 9.0 0.00 0.00 0.00 58 1020.4
20181210221252 36 186 3.0 8.0 0.00 0.00 0.00 58 1020.6
20181210220351 38 189 3.0 7.0 0.00 0.00 0.00 60 1020.7
20181210215451 37 185 2.0 9.0 0.00 0.00 0.00 59 1020.7
20181210214551 37 182 3.0 9.0 0.00 0.00 0.00 59 1020.7
20181210213651 38 189 3.0 8.0 0.00 0.00 0.00 59 1020.7
20181210212751 38 183 3.0 9.0 0.00 0.00 0.00 57 1020.8
20181210211851 37 172 4.0 9.0 0.00 0.00 0.00 54 1020.8
20181210210951 38 181 2.0 8.0 0.00 0.00 0.00 56 1020.8
20181210210051 37 181 4.0 9.0 0.00 0.00 0.00 59 1020.9
20181210205151 37 200 3.0 8.0 0.00 0.00 0.00 56 1020.9
20181210204251 37 178 4.0 9.0 0.00 0.00 0.00 57 1021.0
20181210203351 37 171 3.0 9.0 0.00 0.00 0.00 50 1021.1
20181210202451 39 197 3.0 8.0 0.00 0.00 0.00 56 1021.3
20181210201552 38 185 3.0 8.0 0.00 0.00 0.00 55 1021.8
20181210200651 35 177 4.0 12.0 0.00 0.00 0.00 52 1021.9
20181210195751 37 183 3.0 8.0 0.00 0.00 0.00 55 1021.9
20181210194851 39 177 3.0 7.0 0.00 0.00 0.00 53 1021.7
20181210193951 37 182 4.0 11.0 0.00 0.00 0.00 51 1022.1
20181210193052 37 182 4.0 11.0 0.00 0.00 0.00 52 1021.9
20181210192151 37 169 4.0 10.0 0.00 0.00 0.00 51 1022.2
20181210191251 36 201 4.0 9.0 0.00 0.00 0.00 51 1022.5
20181210190351 35 190 4.0 11.0 0.00 0.00 0.00 52 1022.7
20181210185451 36 191 3.0 7.0 0.00 0.00 0.00 50 1022.9
20181210184551 35 224 3.0 7.0 0.00 0.00 0.00 51 1023.0
20181210183651 36 187 3.0 7.0 0.00 0.00 0.00 52 1023.0
20181210182751 35 194 3.0 7.0 0.00 0.00 0.00 52 1023.2
20181210181851 35 165 3.0 7.0 0.00 0.00 0.00 52 1023.3
20181210180951 36 181 3.0 5.0 0.00 0.00 0.00 52 1023.3
20181210180051 36 189 3.0 8.0 0.00 0.00 0.00 52 1023.4
20181210175151 34 189 3.0 11.0 0.00 0.00 0.00 56 1023.5
20181210174251 33 184 4.0 9.0 0.00 0.00 0.00 58 1023.5
20181210173351 31 178 4.0 9.0 0.00 0.00 0.00 59 1023.6
20181210172451 33 165 3.0 7.0 0.00 0.00 0.00 58 1023.7
20181210171551 32 184 3.0 7.0 0.00 0.00 0.00 58 1024.1
20181210170651 31 199 3.0 9.0 0.00 0.00 0.00 61 1024.2
20181210165752 29 207 2.0 7.0 0.00 0.00 0.00 58 1024.4
20181210164851 31 181 2.0 6.0 0.00 0.00 0.00 62 1024.5
20181210163951 28 166 3.0 7.0 0.00 0.00 0.00 59 1024.5
20181210163051 27 168 2.0 7.0 0.00 0.00 0.00 60 1024.4
20181210162151 28 204 1.0 5.0 0.00 0.00 0.00 61 1024.7
20181210161252 28 179 1.0 5.0 0.00 0.00 0.00 64 1024.7
20181210160351 24 190 2.0 5.0 0.00 0.00 0.00 73 1024.9
20181210155452 24 176 1.0 5.0 0.00 0.00 0.00 75 1024.9
20181210154552 22 184 1.0 4.0 0.00 0.00 0.00 81 1025.1
20181210153652 20 178 1.0 3.0 0.00 0.00 0.00 84 1024.9
20181210152751 19 177 1.0 5.0 0.00 0.00 0.00 86 1024.7
20181210151851 18 186 1.0 3.0 0.00 0.00 0.00 83 1024.8
20181210150951 18 169 1.0 3.0 0.00 0.00 0.00 85 1024.8
20181210150051 17 116 2.0 4.0 0.00 0.00 0.00 87 1024.4
20181210145151 16 146 2.0 3.0 0.00 0.00 0.00 88 1024.3
20181210144251 16 143 0.0 2.0 0.00 0.00 0.00 90 1024.4
20181210143351 14 145 0.0 1.0 0.00 0.00 0.00 89 1024.5
20181210142451 14 146 0.0 1.0 0.00 0.00 0.00 90 1024.6
20181210141551 13 0 0.0 0.0 0.00 0.00 0.00 89 1024.6
20181210140652 12 0 0.0 0.0 0.00 0.00 0.00 90 1024.5
20181210135751 11 0 0.0 0.0 0.00 0.00 0.00 89 1024.6
20181210134851 11 0 0.0 0.0 0.00 0.00 0.00 90 1024.7
20181210133952 11 0 0.0 0.0 0.00 0.00 0.00 89 1024.9
20181210133051 10 0 0.0 0.0 0.00 0.00 0.00 85 1025.0
20181210132152 10 0 0.0 0.0 0.00 0.00 0.00 85 1025.0
20181210131251 11 0 0.0 0.0 0.00 0.00 0.00 89 1024.8
20181210130351 11 0 0.0 0.0 0.00 0.00 0.00 89 1024.9
20181210125451 11 0 0.0 0.0 0.00 0.00 0.00 89 1025.0
20181210124552 11 0 0.0 0.0 0.00 0.00 0.00 90 1024.9
20181210123651 11 0 0.0 1.0 0.00 0.00 0.00 90 1024.8
20181210122751 11 0 0.0 0.0 0.00 0.00 0.00 90 1025.0
20181210121851 11 0 0.0 0.0 0.00 0.00 0.00 90 1025.0
20181210120951 12 0 0.0 0.0 0.00 0.00 0.00 90 1024.8
20181210120051 13 90 0.0 1.0 0.00 0.00 0.00 90 1024.9
20181210115152 12 90 0.0 1.0 0.00 0.00 0.00 90 1024.9
20181210114251 11 0 0.0 0.0 0.00 0.00 0.00 90 1025.1
20181210113351 12 0 0.0 1.0 0.00 0.00 0.00 91 1025.1
20181210112451 12 0 0.0 0.0 0.00 0.00 0.00 90 1024.8
20181210111551 13 0 0.0 0.0 0.00 0.00 0.00 90 1024.9
20181210110652 12 0 0.0 0.0 0.00 0.00 0.00 90 1024.9
20181210105751 12 0 0.0 0.0 0.00 0.00 0.00 91 1024.8
20181210104851 13 0 0.0 0.0 0.00 0.00 0.00 91 1024.9
20181210103951 12 0 0.0 0.0 0.00 0.00 0.00 92 1025.0
20181210103052 13 0 0.0 0.0 0.00 0.00 0.00 91 1025.0
20181210102152 13 0 0.0 1.0 0.00 0.00 0.00 91 1025.1
20181210101251 13 132 0.0 1.0 0.00 0.00 0.00 91 1025.1
20181210100352 13 0 0.0 0.0 0.00 0.00 0.00 91 1025.4